Location: St Paul
(33.4390°N, 83.7350°W)
Time: 06:15:53
(UTC-04:00)

SEDSat Delta rocket - Pass Details

Date: 06 October 2017
Orbit: 533 x 1002 km, 31.4° (Epoch: 21 October)

Event Time Altitude Azimuth Distance (km) Brightness Sun altitude
Rises 19:54:28 0° 254° (WSW) 2,918 8.2 -9.6°
Reaches altitude 10° 19:56:42 10° 251° (WSW) 2,075 7.1 -10.1°
Maximum altitude 20:01:31 64° 170° (S) 808 3.6 -11.1°
Enters shadow 20:05:54 16° 92° (E) 1,958 4.9 -12.0°
